Portada
METAR-TAF:

METAR-TAF

Aeroports :

Jesaq, Iran

latitud: 26-38N, longitud: 057-46E, altitud: 3 m

Observació

L'informe es va fer fa 1 hora i 57 minuts, a les 00:00 UTC
Vent 4 kt del Nord/Nord-Est
Temperatura 22°C
Humitat 38%
Pressió 1014 hPa
Visibilitat: 8000 m

METAR: OIZJ 160000Z 02004KT 8000 NSC 22/07 Q1014

Hora: 05:27 (01:57 UTC)


TAF: manca

Observacions i pronòstics meteorològics de més de 4000 aeroports (METAR i TAF).

Les estacions disponibles són els punts grocs i vermells al mapa.

Posi el ratolí al punt desitjat per veure el nom de l'estació.

Feu clic per veure les observacions i els pronòstics meteorològics.

Per canviar el mapa: feu clic els botons verds amb una creu de color negre per apropar; al botó verd amb un guió per allunyar la imatge; o en les fletxes verdes per a mapes adjacents.


METAR-TAF: